Location: Newark
(48.1500°N, 2.9667°W)
Time: 02:34:56
(UTC+00:00)

Altair - Pass Details

Date: 29 January 2020
Orbit: 1502 x 1682 km, 47.2° (Epoch: 19 February)

Event Time Altitude Azimuth Distance (km) Brightness Sun altitude
Rises 06:05:50 0° 195° (SSW) 4,818 10.0 -16.5°
Reaches altitude 10° 06:09:34 10° 183° (S) 3,862 9.7 -15.9°
Maximum altitude 06:17:16 27° 132° (SE) 2,818 9.6 -14.6°
Drops below altitude 10° 06:25:06 10° 80° (E) 3,944 10.8 -13.3°
Sets 06:28:56 0° 69° (ENE) 4,940 11.2 -12.7°
